272  
AXUS43 KGID 280602  
MISGRI  
 
GID CWA HOURLY WEATHER ROUNDUP  
NATIONAL WEATHER SERVICE HASTINGS NE  
1200 AM CST SUN FEB 28 2021  
 
NOTE: "FAIR" INDICATES FEW OR NO CLOUDS BELOW 12,000 FEET WITH NO  
SIGNIFICANT WEATHER AND/OR OBSTRUCTIONS TO VISIBILITY.  
   
..SOUTH CENTRAL NEBRASKA
 
 
 
CITY SKY/WX TMP DP RH WIND PRES REMARKS  
GRAND ISLAND CLEAR 34 30 85 NW7 29.79F WCI 28  
KEARNEY CLEAR 32 31 96 NW16 29.83R WCI 21  
HASTINGS PTCLDY 35 32 88 NW8 29.80S WCI 29  
ORD CLOUDY 34 30 85 NW12 29.81R WCI 25  
YORK N/A N/A N/A N/A MISG N/A  
AURORA CLEAR 36 34 90 NW12 29.79R WCI 28  
LEXINGTON CLEAR 31 28 88 W9 29.86S WCI 23  
HOLDREGE CLEAR 34 30 85 NW14 29.84R WCI 24  
HEBRON PTCLDY 41 36 81 NW9G17 29.78R  
   
..NEBRASKA PANHANDLE
 
 
 
CITY SKY/WX TMP DP RH WIND PRES REMARKS  
CHADRON LGT SNOW 26 21 81 N13 29.94R WCI 15  
ALLIANCE MOCLDY 25 24 96 NW6 29.86S WCI 18  
SCOTTSBLUFF LGT SNOW 29 21 72 NW20G31 29.89R WCI 16  
SIDNEY PTCLDY 27 14 58 W14 29.88R WCI 16  
   
..WESTERN AND NORTH CENTRAL NEBRASKA
 
 
 
CITY SKY/WX TMP DP RH WIND PRES REMARKS  
VALENTINE CLOUDY 34 30 85 NE6 29.85F WCI 29  
AINSWORTH CLOUDY 31 30 95 N8 29.84S WCI 24  
ONEILL CLOUDY 33 32 97 N13 29.80S WCI 24  
BROKEN BOW CLOUDY 33 30 88 NW7 29.84R WCI 27  
IMPERIAL PTCLDY 29 17 61 W8 29.89S WCI 21  
NORTH PLATTE CLEAR 30 26 85 W7 29.86R WCI 23  
MCCOOK CLEAR 30 24 78 W10 29.89R WCI 21  
   
..EASTERN NEBRASKA
 
 
 
CITY SKY/WX TMP DP RH WIND PRES REMARKS  
NORFOLK CLEAR 33 28 81 NW9 29.74R WCI 25  
SO SIOUX CITY CLOUDY 35 31 85 NW8 29.73R WCI 29  
TEKAMAH PTCLDY 38 33 82 SW8 29.71R WCI 32  
COLUMBUS CLEAR 34 32 92 W8 29.76R WCI 27  
ALBION CLEAR 31 29 92 NW7 29.78R WCI 24  
OMAHA EPPLEY PTCLDY 40 36 86 CALM 29.70F  
OFFUTT AFB CLOUDY 42 37 82 SE3 29.69F  
MILLARD CLOUDY 43 39 86 CALM 29.69F  
LINCOLN CLEAR 43 37 79 NW13 29.74R  
NEBRASKA CITY CLOUDY 49 35 58 S7 29.69S  
BEATRICE CLOUDY 46 42 85 NW15 29.75R  
FALLS CITY CLOUDY 49 39 68 SE7 29.70S  
   
..NORTHERN KANSAS
 
 
 
CITY SKY/WX TMP DP RH WIND PRES REMARKS  
GOODLAND CLEAR 27 9 46 NW16 29.87F WCI 15  
HILL CITY CLEAR 36 25 64 NW14 29.88R WCI 27  
NORTON FAIR 32 27 80 NW10 29.90S WCI 24  
PHILLIPSBURG CLEAR 36 25 64 W14 29.86R WCI 27  
OBERLIN FAIR 29 25 87 NW12 29.93S WCI 19  
SMITH CENTER CLEAR 34 34 100 N7 29.83R WCI 28  
HAYS CLEAR 42 22 44 NW20 29.83R  
RUSSELL CLEAR 40 24 53 NW23G31 29.81R WCI 30  
CONCORDIA CLOUDY 45 39 79 NW15 29.77R  
SALINA MOCLDY 46 41 82 W18 29.75R  
TOPEKA CLOUDY 55 45 68 S7 29.74F  
 
CLICK HERE TO GO TO PREVIOUS BULLETINS.

The Nexlab NE Page
The Nexlab KS Page Main Text Page